Morgantown, WV

7:48 AM EST on February 23, 2018 (GMT -0500)
Morgantown Municipal-Hart

Weather History for KMGW - February, 2003

Change the Weather History Date:

Tuesday, February 18, 2003

  Actual Average Record
Temperature  
Mean Temperature 26 °F 35 °F  
Max Temperature 28 °F 44 °F 73 °F (1981)
Min Temperature 24 °F 26 °F -3 °F (1903)
Degree Days  
Heating Degree Days 39 30  
Month to date heating degree days 572  
Since 1 July heating degree days 3599  
Cooling Degree Days 0 0  
Month to date cooling degree days 0  
Year to date cooling degree days 0  
Moisture  
Dew Point 24 °F    
Average Humidity 88    
Maximum Humidity 100    
Minimum Humidity 72    
Precipitation  
Precipitation 0.08 in 0.10 in 2.71 in (2000)
Month to date precipitation 1.63  
Year to date precipitation 4.44  
Sea Level Pressure  
Sea Level Pressure 30.10 in    
Wind  
Wind Speed 5 mph (SW)    
Max Wind Speed 12 mph    
Max Gust Speed 20 mph    
Visibility 6 miles    
Events Rain , Snow    
T = Trace of Precipitation, MM = Missing Value Source: NWS Daily Summary

Daily Weather History Graph

Daily Weather History Graph

Search for Another Location

Airport or City:

Trip Planner

Search our weather history database for the weather conditions in past years. The results will help you decide how hot, cold, wet, or windy it might be!

Date:

Astronomy

Feb. 18, 2003 Rise Set
Actual Time 7:08 AM EST 5:59 PM EST
Civil Twilight 6:41 AM EST 6:26 PM EST
Nautical Twilight 6:09 AM EST 6:58 PM EST
Astronomical Twilight 5:38 AM EST 7:29 PM EST
Moon 8:08 PM EST (2/18) 8:27 AM EST (2/18)
Length of Visible Light 11h 45m
Length of Day
10h 50m
Waning Gibbous, 96% of the Moon is Illuminated
Feb 18
Waning Gibbous
Feb 23
Last Quarter
Mar 2
New
Mar 11
First Quarter
Mar 18
Full

Hourly Weather History & Observations

Time (EST) Temp. Windchill Dew Point Humidity Pressure Visibility Wind Dir Wind Speed Gust Speed Precip Events Conditions
12:15 AM 26.6 °F - 24.8 °F 93% 29.94 in 5.0 mi Calm Calm - N/A   Overcast
12:38 AM 26.6 °F - 26.6 °F 100% 29.95 in 3.0 mi Calm Calm - 0.00 in Rain Light Freezing Rain
12:53 AM 27.0 °F 23.0 °F 26.1 °F 96% 29.99 in 4.0 mi South 3.5 mph - 0.00 in Rain Light Freezing Rain
1:00 AM 26.6 °F - 26.6 °F 100% 29.95 in 5.0 mi Calm Calm - 0.00 in Rain Light Freezing Rain
1:14 AM 26.6 °F - 26.6 °F 100% 29.94 in 4.0 mi Calm Calm - 0.00 in   Overcast
1:24 AM 26.6 °F - 26.6 °F 100% 29.94 in 3.0 mi Calm Calm - 0.00 in   Overcast
1:53 AM 28.0 °F 20.8 °F 28.0 °F 100% 29.99 in 4.0 mi SSW 6.9 mph - 0.00 in   Overcast
2:31 AM 28.4 °F 22.2 °F 28.4 °F 100% 29.96 in 6.0 mi WSW 5.8 mph - 0.00 in Rain Light Freezing Rain
2:53 AM 28.9 °F 22.8 °F 27.0 °F 92% 30.00 in 5.0 mi WSW 5.8 mph - 0.00 in Rain Light Freezing Rain
2:55 AM 28.4 °F 21.2 °F 26.6 °F 93% 29.96 in 5.0 mi WSW 6.9 mph - 0.00 in Rain Light Freezing Rain
3:10 AM 28.4 °F 20.4 °F 26.6 °F 93% 29.96 in 8.0 mi WSW 8.1 mph - 0.00 in   Overcast
3:53 AM 28.0 °F 20.0 °F 26.1 °F 92% 30.01 in 6.0 mi SW 8.1 mph - 0.00 in   Overcast
4:41 AM 28.4 °F 19.7 °F 24.8 °F 86% 29.98 in 9.0 mi WSW 9.2 mph - 0.00 in   Overcast
4:53 AM 28.0 °F 19.3 °F 25.0 °F 88% 30.03 in 5.0 mi SW 9.2 mph - 0.00 in Snow Light Snow
5:37 AM 26.6 °F 18.2 °F 24.8 °F 93% 30.00 in 10.0 mi WSW 8.1 mph - 0.00 in   Overcast
5:53 AM 27.0 °F 18.7 °F 24.1 °F 89% 30.05 in 10.0 mi WSW 8.1 mph - 0.00 in   Overcast
6:46 AM 26.6 °F 20.0 °F 23.0 °F 86% 30.03 in 10.0 mi Variable 5.8 mph - 0.00 in Snow Light Snow
6:53 AM 27.0 °F 21.6 °F 23.0 °F 85% 30.08 in 9.0 mi Variable 4.6 mph - 0.00 in Snow Light Snow
7:53 AM 26.1 °F 19.4 °F 23.0 °F 88% 30.11 in 8.0 mi Variable 5.8 mph - 0.00 in   Overcast
8:21 AM 26.6 °F 21.2 °F 23.0 °F 86% 30.08 in 5.0 mi Variable 4.6 mph - 0.00 in Snow Snow
8:43 AM 26.6 °F 22.6 °F 23.0 °F 86% 30.09 in 2.5 mi Variable 3.5 mph - 0.00 in Snow Light Snow
8:53 AM 26.1 °F 20.5 °F 23.0 °F 88% 30.14 in 2.5 mi Variable 4.6 mph - 0.00 in Snow Light Snow
9:05 AM 26.6 °F 18.2 °F 23.0 °F 86% 30.10 in 2.5 mi WSW 8.1 mph - 0.00 in Snow Light Snow
9:13 AM 24.8 °F 16.1 °F 23.0 °F 93% 30.10 in 2.5 mi SW 8.1 mph - 0.00 in Snow Light Snow
9:25 AM 24.8 °F 16.1 °F 21.2 °F 86% 30.10 in 2.0 mi WSW 8.1 mph - 0.00 in Snow Light Snow
9:53 AM 26.1 °F 18.4 °F 23.0 °F 88% 30.17 in 2.5 mi WSW 6.9 mph - 0.00 in Snow Light Snow
9:59 AM 24.8 °F 16.9 °F 23.0 °F 93% 30.12 in 1.8 mi Variable 6.9 mph - 0.00 in Snow Light Snow
10:28 AM 24.8 °F 17.9 °F 23.0 °F 93% 30.13 in 2.5 mi Variable 5.8 mph - 0.00 in Snow Light Snow
10:38 AM 24.8 °F 19.1 °F 21.2 °F 86% 30.13 in 3.0 mi SW 4.6 mph - 0.00 in Snow Light Snow
10:53 AM 26.1 °F 19.4 °F 21.9 °F 84% 30.18 in 5.0 mi Variable 5.8 mph - 0.00 in Snow Light Snow
11:08 AM 26.6 °F 18.2 °F 21.2 °F 80% 30.14 in 9.0 mi SW 8.1 mph - N/A   Overcast
11:53 AM 27.0 °F 18.7 °F 19.9 °F 75% 30.18 in 10.0 mi WSW 8.1 mph - N/A   Overcast
12:53 PM 28.0 °F 20.8 °F 21.0 °F 75% 30.18 in 9.0 mi Variable 6.9 mph - 0.01 in   Overcast
1:53 PM 28.0 °F 22.8 °F 21.0 °F 75% 30.17 in 10.0 mi Variable 4.6 mph - 0.02 in   Overcast
2:53 PM 28.9 °F 19.8 °F 21.0 °F 72% 30.17 in 8.0 mi SW 10.4 mph 17.3 mph 0.03 in   Overcast
3:53 PM 28.9 °F 20.4 °F 23.0 °F 78% 30.19 in 7.0 mi SW 9.2 mph - 0.01 in   Overcast
4:53 PM 28.0 °F 19.3 °F 23.0 °F 81% 30.21 in 7.0 mi SW 9.2 mph 19.6 mph 0.01 in   Overcast
5:53 PM 28.0 °F 20.8 °F 23.0 °F 81% 30.23 in 6.0 mi Variable 6.9 mph - N/A   Haze
6:36 PM 28.4 °F 21.2 °F 24.8 °F 86% 30.20 in 8.0 mi SW 6.9 mph - N/A   Overcast
6:53 PM 28.0 °F 18.1 °F 24.1 °F 85% 30.26 in 8.0 mi SSW 11.5 mph - N/A   Overcast
7:53 PM 28.0 °F 18.6 °F 24.1 °F 85% 30.27 in 8.0 mi SW 10.4 mph - N/A   Overcast
8:53 PM 27.0 °F 18.7 °F 25.0 °F 92% 30.28 in 6.0 mi SW 8.1 mph - N/A   Overcast
9:53 PM 27.0 °F 21.6 °F 26.1 °F 96% 30.27 in 4.0 mi SSW 4.6 mph - 0.00 in Snow Light Snow
10:37 PM 28.4 °F 21.2 °F 24.8 °F 86% 30.23 in 7.0 mi SW 6.9 mph - 0.00 in   Overcast
10:53 PM 28.0 °F 20.8 °F 24.1 °F 85% 30.28 in 7.0 mi SW 6.9 mph - 0.00 in   Overcast
11:53 PM 28.0 °F 20.8 °F 25.0 °F 88% 30.29 in 8.0 mi SW 6.9 mph - N/A   Overcast